Location: Marion Hill
(40.7303°N, 80.2959°W)
Time: 17:34:07
(UTC+00:00)

NOSS 3-3 (C) - Pass Details

Date: 29 October 2020
Orbit: 825 x 1387 km, 63.4° (Epoch: 22 November)

Event Time Altitude Azimuth Distance (km) Brightness Sun altitude
Rises 23:23:35 0° 207° (SSW) 3,374 7.4 -12.5°
Reaches altitude 10° 23:25:56 10° 206° (SSW) 2,474 6.6 -12.9°
Maximum altitude 23:31:36 77° 121° (ESE) 936 3.8 -14.0°
Drops below altitude 10° 23:38:00 10° 37° (NE) 2,772 6.0 -15.2°
Enters shadow 23:38:38 - 37° (NE) 3,009 6.2 -15.3°
